GFSCGP_850_dewp_054.txt.gz
Dewpoint
5 6 6 3 1 -1 0 3 5 7 7 8 7 6 4 3 4 4 3 2 2 4 3 3 -1 0 9 10 10 9 10 10 11 11 12 12 11 11 12 12 12 12 12 12
4 6 2 1 2 2 3 3 3 4 6 7 7 6 4 2 2 3 3 2 3 4 4 2 0 -0 -1 6 9 9 10 11 12 12 12 12 11 11 12 12 12 12 12 12
5 5 2 3 3 3 2 2 3 3 5 5 5 6 5 3 2 2 2 2 3 3 4 3 3 -1 -1 -1 1 7 8 9 9 10 11 10 11 10 11 11 11 10 9 10
5 4 3 2 2 0 3 1 2 3 3 3 3 1 2 2 3 2 2 2 2 3 4 4 3 0 -1 -2 -2 -0 4 7 7 8 9 9 10 10 10 10 7 5 4 4
5 6 4 4 3 0 3 1 2 1 1 3 4 4 -2 1 2 1 1 2 2 3 4 3 3 2 0 -1 -2 -1 -0 1 3 5 6 6 5 3 1 -0 -1 -2 -2 -3
5 4 3 3 2 1 0 2 2 3 3 6 2 3 -0 -0 -1 -1 -1 1 2 2 2 2 2 1 1 -1 -2 -1 -1 0 0 -0 -1 -2 -2 -2 -3 -4 -4 -5 -5 -5
6 5 3 3 2 1 1 2 6 6 7 4 1 3 -1 -1 -2 -4 -4 -4 -1 1 2 2 1 1 1 -1 -2 -1 -1 -1 -2 -2 -3 -3 -4 -4 -4 -4 -4 -3 -3 -3
7 7 5 3 2 3 2 -1 3 4 4 2 0 4 -1 -3 -4 -4 -4 -4 -4 -4 -2 1 2 2 0 -1 -2 -1 -1 -2 -2 -2 -2 -2 -3 -3 -2 -2 -2 -2 -2 -2
6 6 4 3 2 1 4 5 -2 2 0 3 0 -1 -3 -6 -6 -6 -6 -5 -4 -4 -4 -4 -4 0 -0 -1 -1 -1 -1 -1 -1 -2 -2 -2 -1 -1 -0 -0 -0 -0 -1 -1
3 7 4 3 2 1 2 -1 3 4 5 2 -1 -1 -5 -4 -4 -6 -6 -6 -5 -3 -4 -5 -4 -2 -0 0 1 0 1 -0 -1 -1 -1 -0 0 0 1 1 1 1 1 0
2 3 6 4 4 5 3 3 3 1 2 2 -1 -4 -5 -4 -5 -5 -5 -4 -3 -3 -2 -1 -0 0 1 1 1 1 1 -0 -0 0 1 1 1 1 1 1 1 1 1 1
1 3 6 7 4 2 1 1 1 3 5 2 2 -2 -6 -6 -6 -5 -4 -3 -2 -4 -3 0 2 1 2 2 2 1 1 1 1 1 1 1 1 0 -0 -0 0 1 1 1
1 4 6 7 5 3 4 3 1 1 2 4 3 -0 -5 -6 -5 -5 -3 -2 -2 -2 -3 -1 1 2 2 2 1 1 1 1 2 2 1 1 1 -1 -1 -1 -0 1 1 1
0 2 3 3 4 3 5 4 3 3 5 2 2 0 -2 -3 -2 -3 -2 -2 -2 -1 1 1 1 2 2 1 1 1 1 1 2 2 1 1 -1 -1 -0 0 1 2 2 2
1 5 3 0 1 3 3 3 4 5 4 4 2 0 -2 -2 -2 -1 -1 -1 -2 -2 -0 1 1 1 1 1 1 1 2 2 2 1 1 -1 -1 0 1 1 1 1 1 1
1 5 2 2 0 2 3 2 2 3 3 3 3 3 -0 -0 -1 -1 -1 -1 -1 -2 -2 -1 -0 0 0 0 1 2 2 2 2 1 -1 -1 0 1 1 1 1 1 1 1
4 3 3 3 -0 -0 1 -1 -0 1 2 2 3 -0 -2 -1 -1 -0 -1 -1 -1 -1 -2 -2 -3 -2 -2 -0 1 1 2 2 1 0 -1 -0 0 1 1 1 1 1 1 1
1 1 1 3 0 1 -3 -5 -3 -2 -2 -2 -1 -1 -1 0 0 0 -0 -1 -1 -1 -1 -1 -0 -1 -2 0 1 1 2 1 1 -1 -1 -0 1 1 0 0 0 1 1 0
-2 -1 2 3 1 -2 -0 -1 -1 -1 1 -2 -0 -1 0 1 1 0 -1 -1 -1 -1 -1 -0 -1 -3 -3 -1 -1 1 1 1 -1 -1 -0 -0 0 1 0 0 0 0 0 0
-1 -2 -0 1 3 2 -3 -3 -2 -2 1 -1 -0 0 0 1 3 1 1 -1 -1 -1 -1 -1 -3 -4 -2 -2 0 1 1 0 -1 -1 -0 -0 -0 -0 0 0 0 0 0 -0
2 2 3 2 2 -1 -2 -2 -2 2 2 -1 -2 -2 0 1 1 2 1 -1 -1 -1 -2 -2 -3 -3 -3 -1 1 1 1 -1 -1 -0 -1 -0 -0 -0 -0 -0 -0 -0 -0 -2
1 2 2 2 2 1 -4 -1 1 -1 -5 -6 -6 -4 -2 -1 1 2 0 0 -1 -0 -0 -2 -2 -2 0 1 1 1 -1 -1 -1 -1 -1 -0 -0 -0 -0 -0 -0 -1 -2 -10
2 -0 1 0 0 -2 -5 -2 -4 -4 -4 -4 -5 -3 -2 -2 -2 2 2 -0 0 1 1 0 0 1 1 1 0 -1 -1 -2 -2 -2 -1 -1 -0 -0 -0 -0 -0 -2 -11 -19
-1 -3 -1 -2 -2 -4 -4 -2 -4 -4 -3 -3 -2 -1 -1 -1 -3 0 2 1 1 1 1 1 1 1 1 0 -1 -1 -2 -2 -3 -3 -2 -1 -1 -0 -0 -0 -2 -4 -19 -21
-3 -6 -5 -5 -6 -4 -4 -3 -3 -2 -2 -2 -1 -0 -0 0 -4 -2 2 2 1 1 1 1 1 1 -0 -0 -1 -1 -0 -0 -2 -4 -3 -3 -2 -1 -0 -1 -2 -7 -20 -21
-6 -3 -2 -2 -4 -3 -3 -2 -1 -1 -2 -1 -1 -1 -1 -1 -1 -1 1 2 2 2 2 2 3 5 4 5 4 3 2 3 0 -2 -5 -6 -4 -3 -2 -2 -3 -11 -20 -20

GFSCGP_850_dewp_057.txt.gz
Dewpoint
3 6 5 1 0 -3 -3 -2 1 2 5 7 6 6 4 3 2 3 3 2 2 2 2 4 3 1 5 13 14 11 11 12 12 14 13 13 13 13 14 13 13 13 13 13
5 6 1 -2 -2 -1 -3 -1 3 4 5 7 6 7 4 3 2 2 2 1 1 1 2 4 3 -0 1 7 13 13 10 11 11 13 13 13 14 14 14 14 13 13 13 14
6 5 4 0 1 1 0 -1 0 4 6 5 6 8 6 3 2 1 1 1 1 1 2 4 3 -0 -1 1 8 13 13 12 13 13 14 13 13 12 11 11 11 11 10 11
4 4 5 2 1 -0 1 -2 -0 2 5 5 3 3 2 2 2 1 1 1 1 1 2 3 4 0 -0 -1 -1 4 9 8 9 10 11 11 11 12 13 12 9 10 9 8
6 5 5 3 1 -1 0 -0 1 1 2 -2 3 3 -2 -1 0 0 0 0 1 1 2 3 4 1 1 -1 -1 -2 -0 3 6 9 10 11 12 11 10 9 7 2 0 -1
5 5 4 0 -1 -1 1 0 0 0 -0 4 1 1 -2 -3 -1 -3 -3 -2 -0 1 1 3 4 3 2 1 0 -1 -1 -0 1 2 5 7 7 6 2 -0 -1 -2 -3 -4
5 5 4 3 3 1 0 1 5 5 6 5 0 0 -1 -3 -3 -4 -3 -3 -3 -1 -0 2 3 3 2 2 1 -1 -1 -0 -0 1 1 0 -1 -2 -3 -3 -4 -4 -4 -4
8 7 5 3 0 1 2 -0 2 3 3 1 0 2 -2 -4 -4 -4 -4 -4 -4 -3 -3 1 2 2 2 1 1 -1 -1 -1 -0 -1 -1 -2 -3 -3 -3 -3 -3 -3 -3 -2
6 7 4 3 2 0 1 3 -1 2 -0 2 0 -2 -4 -5 -5 -6 -6 -6 -5 -4 -4 -3 -0 2 3 3 1 0 -1 -0 -1 -1 -2 -2 -2 -3 -3 -2 -1 -1 -0 -0
3 7 5 4 2 1 1 -1 2 4 5 -0 -1 -3 -5 -5 -5 -6 -5 -4 -4 -4 -3 -3 -2 -2 1 2 2 3 2 -0 -1 -1 -1 -2 -2 -1 -0 0 0 0 1 1
2 1 6 5 5 3 3 3 2 1 2 3 -3 -4 -6 -4 -4 -4 -3 -3 -2 -2 -2 -1 -0 -0 1 1 2 1 1 0 -0 -1 -1 -1 0 0 0 1 1 0 0 1
1 3 5 4 3 2 1 1 1 3 4 0 1 -1 -7 -5 -5 -4 -3 -3 -2 -1 -0 1 1 2 3 3 2 1 1 1 0 -0 -0 1 1 1 1 1 -0 -1 -1 -0
1 4 7 6 3 2 3 2 1 -0 3 4 3 -2 -5 -5 -5 -5 -4 -3 -3 -2 1 1 2 2 3 2 2 2 1 1 -0 0 1 1 1 1 1 0 -1 -1 -0 0
1 1 3 4 4 1 3 1 1 1 5 2 1 -1 -3 -4 -4 -4 -4 -3 -2 -2 -2 1 2 3 3 2 2 2 1 1 1 1 1 1 1 1 0 -1 -0 0 1 1
1 6 3 0 2 3 3 1 1 4 3 3 -0 -0 -2 -3 -2 -2 -1 -1 -1 -1 -1 -1 2 2 3 2 2 1 1 1 1 1 2 2 1 0 -1 -0 1 1 1 1
1 5 3 4 0 1 3 1 1 2 2 2 1 1 -2 -2 -2 -2 -2 -2 -2 -2 -2 -1 -1 2 2 3 1 1 1 1 1 1 2 1 1 -1 -1 1 1 1 1 1
3 3 4 4 -0 -0 1 -1 -0 1 -0 0 2 -1 -2 -1 -0 0 0 0 -0 -1 -1 -1 -1 -0 2 2 1 0 1 1 1 2 2 1 -1 -1 0 1 1 1 1 1
3 3 3 4 1 3 -3 -4 -4 -2 -3 -3 -2 -1 -1 -1 -0 0 0 -1 -1 -1 -1 -1 -1 -1 0 2 2 0 1 1 2 2 1 0 -1 -0 1 1 0 0 0 1
-2 0 2 4 1 -3 -0 -1 -1 -1 2 -1 -0 -1 -0 0 0 -1 1 1 0 -0 -1 -1 -1 -1 -0 1 1 -0 1 1 1 1 1 -1 -1 -0 1 1 0 0 -0 -0
-2 -2 -0 -0 1 0 -1 -3 -2 -2 1 -1 -2 -3 -3 -1 1 -0 0 2 1 1 1 1 -0 -0 -1 1 1 1 0 -0 1 1 -0 -1 -0 -0 0 0 0 0 -1 -1
1 1 3 2 2 -1 -3 -2 -2 2 1 -4 -5 -5 -5 -3 -2 -2 -2 1 1 1 1 0 0 -1 -1 0 -0 0 -1 1 1 0 -1 -1 -1 -0 -0 -0 0 -0 -0 -0
1 2 1 0 2 2 -5 -1 0 -2 -3 -3 -3 -4 -4 -3 -3 -3 -3 -1 2 1 1 1 0 -0 -1 -1 -1 -0 1 1 0 -1 -1 -1 -1 -0 -0 -0 -0 -0 -0 -0
1 -1 0 -0 1 -3 -4 -4 -3 -3 -3 -3 -3 -3 -2 -2 -2 -2 -2 -2 2 2 1 1 1 0 -0 -0 1 1 1 0 -1 -2 -2 -2 -1 -0 -0 -0 -0 -1 -0 -1
-1 -3 -0 -2 -2 -3 -5 -4 -3 -3 -2 -2 -2 -2 -2 -1 -1 -1 -1 -1 2 2 1 1 1 1 1 1 1 1 -0 -1 -1 -2 -2 -2 -1 -0 -0 -0 -0 -0 -1 -3
-3 -6 -5 -6 -8 -4 -4 -3 -3 -1 -2 -2 -2 -2 -1 -1 -1 -0 -1 -1 1 2 2 1 1 1 1 1 0 -1 -1 -1 -2 -2 -2 -3 -3 -1 -0 -0 0 -0 -2 -6
-7 -5 -4 -4 -2 -3 -3 -2 -1 -2 -2 -2 -2 -1 -1 -1 -1 -1 -0 0 1 2 2 1 1 1 1 3 4 3 0 -0 0 2 2 -0 -4 -3 -2 -1 -0 -1 -2 -8

GFSCGP_850_dewp_060.txt.gz
Dewpoint
3 5 6 4 3 2 3 4 5 5 5 4 6 5 4 2 3 4 4 2 3 3 2 4 4 4 10 13 14 13 12 12 13 13 13 13 13 13 13 13 13 13 14 14
4 6 4 4 2 -0 -1 1 5 4 5 5 6 6 4 3 3 3 3 3 3 3 2 3 4 3 4 11 12 13 11 11 12 12 12 13 13 13 12 13 13 13 13 14
6 5 5 4 1 3 1 -1 6 6 6 5 6 7 6 4 3 3 2 2 2 3 2 3 4 3 3 5 11 12 13 12 12 12 13 13 13 13 13 14 13 14 13 13
5 4 5 5 3 0 1 -3 2 6 7 8 5 5 6 5 4 3 2 1 1 1 1 2 3 4 3 2 5 10 12 13 13 13 12 11 10 12 12 13 13 11 10 10
5 5 5 6 1 -1 2 1 4 6 5 4 6 5 -1 4 3 3 1 1 1 1 1 2 4 4 3 0 0 1 8 10 9 9 10 9 10 12 12 13 12 11 10 6
5 5 5 5 0 0 -0 1 1 1 2 5 2 2 1 0 -0 -2 -2 0 0 0 1 1 4 3 1 -0 -1 -1 -1 3 8 9 9 10 10 10 11 11 10 5 -0 -2
5 5 5 4 3 1 0 2 6 6 5 5 0 2 0 -2 -3 -4 -4 -4 -3 -2 0 1 2 4 4 2 1 -0 -1 -1 2 5 1 1 6 6 6 2 -1 -3 -3 -4
7 6 6 4 2 4 2 2 6 4 5 4 0 3 -1 -4 -5 -4 -4 -3 -3 -3 -3 -1 2 2 4 4 2 2 1 -1 -1 2 0 1 2 -0 -2 -3 -3 -3 -3 -3
7 7 5 4 2 2 3 4 -1 4 -0 4 2 -1 -3 -4 -6 -6 -6 -6 -5 -5 -4 -3 1 2 3 3 2 1 1 -1 -1 -1 -1 -1 -1 -2 -2 -3 -3 -2 -2 -1
3 7 5 4 3 1 3 -1 3 5 3 0 0 -2 -2 -4 -4 -3 -3 -2 -2 -2 -3 -3 -3 0 2 2 2 2 1 2 1 -1 -1 -1 -1 -2 -2 -2 -1 -1 -0 -0
2 4 6 5 5 4 3 4 3 3 4 7 2 -1 -5 -4 -3 -2 -2 -2 -2 -2 -1 -1 -1 -2 -1 2 3 3 2 2 2 2 3 -1 -1 -2 -1 -0 0 -0 0 0
2 3 6 6 5 2 3 2 1 5 4 2 2 0 -5 -4 -4 -4 -3 -3 -2 -2 -2 -1 0 1 1 2 2 3 3 2 2 2 1 1 0 -0 -1 -1 -0 1 1 -0
1 4 5 5 3 2 4 2 2 2 3 4 4 1 -5 -5 -5 -5 -4 -4 -3 -2 -1 -1 -2 1 1 1 1 2 2 2 1 1 0 -1 -1 -0 1 1 1 1 -0 -1
1 2 4 5 4 2 3 2 2 2 4 3 3 0 -3 -4 -4 -3 -2 -2 -2 -2 -2 -1 -0 1 1 0 1 2 2 1 1 1 -0 -0 1 1 1 1 1 -0 -1 -1
2 5 2 1 2 3 3 2 1 3 3 3 1 -0 -2 -1 -1 -1 -1 -1 -1 -1 -1 -2 -2 -0 1 2 1 2 2 2 1 1 1 1 1 1 1 1 -0 -1 0 1
1 4 3 3 0 1 3 2 1 2 2 2 2 2 -2 -1 -1 -0 0 -0 0 -0 -1 -1 -1 -1 0 2 2 1 2 1 1 1 1 1 1 1 1 -0 -1 0 1 1
2 3 3 3 -1 -0 1 -1 1 1 0 0 3 -0 -1 -0 0 0 0 1 1 1 0 -0 -1 -1 -1 1 2 2 1 2 1 1 1 1 1 1 1 -1 -0 1 1 1
3 3 3 3 1 2 -2 -3 -3 -2 -1 -1 -1 0 -0 -0 -1 -0 1 -1 1 2 0 0 -0 -1 -1 -1 1 2 2 1 1 1 1 1 1 1 -0 -1 0 0 0 0
-1 2 3 4 2 -1 -0 -1 -1 0 2 -1 -0 -2 -3 -3 -2 -0 -1 -3 -2 1 2 1 1 -1 -1 -0 -0 2 2 2 1 1 1 1 1 1 -1 -1 0 0 0 0
-1 -2 1 0 2 1 0 -2 -2 -2 3 -3 -4 -4 -5 -5 0 -1 -3 -4 -3 -2 2 1 1 -0 -0 -0 0 1 1 2 1 1 1 1 1 -1 -1 -1 0 0 -0 -1
1 1 2 2 2 1 -3 -3 -2 2 1 -3 -3 -3 -3 -4 -4 -3 -2 -3 -3 -2 2 2 1 0 0 -0 -0 1 2 2 1 1 1 1 -0 -1 -1 -1 -0 -0 -1 -1
2 1 2 2 4 2 -4 -2 0 -2 -3 -3 -2 -2 -2 -2 -2 -2 -2 -2 -1 -1 1 2 1 1 0 0 1 1 1 1 1 1 1 -0 -1 -1 -1 -0 -0 -1 -1 -1
1 0 2 0 1 -3 -5 -5 -3 -3 -2 -1 -2 -2 -2 -2 -1 -1 -1 -1 -1 -1 1 2 2 1 1 0 0 0 1 1 1 1 -0 -1 -1 -2 -1 -0 -0 -0 -0 -1
-1 -4 -0 -3 -2 -4 -5 -3 -3 -2 -2 -2 -2 -2 -2 -2 -2 -1 -1 -1 -1 -1 1 2 2 1 1 1 1 1 1 1 1 -1 -1 -2 -2 -2 -1 -0 -0 -0 -1 -1
-3 -5 -4 -5 -3 -4 -3 -3 -2 -2 -2 -2 -2 -2 -2 -2 -2 -2 -2 -1 -0 0 1 2 2 1 1 1 1 1 1 -0 -1 -1 -1 -2 -2 -3 -2 -2 -0 -0 -0 -0
-6 -5 -4 -1 -1 -1 -2 -2 -2 -2 -3 -2 -2 -2 -2 -2 -2 -2 -1 -1 -0 -0 0 1 2 1 1 1 0 0 1 0 -1 -1 -1 -1 -1 -1 -3 -3 -1 -0 -0 -0

GFSCGP_850_dewp_063.txt.gz
Dewpoint
3 4 5 5 4 4 4 5 5 5 6 8 7 6 4 3 2 2 3 3 2 3 3 4 3 4 8 10 11 12 14 13 13 13 12 11 11 13 12 12 12 13 13 13
4 5 4 3 3 4 4 5 4 4 4 7 6 6 4 3 3 2 3 3 3 2 2 3 4 4 5 6 9 10 11 11 13 13 12 12 11 11 12 13 13 13 13 13
4 4 4 4 4 5 4 4 5 6 6 6 5 7 6 4 4 3 3 3 3 3 3 3 3 3 3 4 7 8 10 10 11 12 13 13 13 13 13 13 12 13 13 13
5 4 5 5 5 3 3 2 4 6 8 9 6 7 5 5 5 4 3 3 2 2 1 3 3 3 3 3 3 9 9 10 10 11 12 13 12 11 11 13 12 14 13 12
5 5 6 6 5 4 5 1 5 7 6 7 7 5 2 4 6 4 3 3 2 1 1 2 3 2 3 3 3 3 9 9 9 9 10 10 9 10 11 11 12 12 12 11
5 5 6 6 4 2 2 5 5 4 4 5 6 4 2 4 4 2 2 2 2 1 1 1 1 3 3 1 1 1 4 10 10 9 9 9 9 8 8 10 10 10 11 10
5 4 5 4 3 1 1 2 7 7 4 5 0 2 1 -2 -3 -3 -3 -3 -2 -1 0 1 1 3 3 2 0 -0 -0 0 7 9 9 9 9 8 7 8 10 11 7 -1
6 6 6 5 3 3 2 1 4 6 6 4 -0 2 -0 -4 -4 -4 -5 -5 -4 -4 -3 -2 3 3 3 4 2 -0 -1 -1 -1 1 5 7 9 9 9 6 3 2 -2 -3
7 7 5 4 3 1 2 2 -1 2 0 3 2 -1 -3 -5 -5 -5 -3 -3 -3 -4 -4 -3 -2 3 4 3 3 3 2 1 -0 -0 -1 -0 1 2 2 -1 -2 -2 -2 -3
4 6 5 4 3 1 2 -1 3 2 1 2 2 -0 -1 -3 -1 -2 -2 -2 -2 -3 -3 -4 -4 1 3 3 3 3 3 1 0 0 -0 -1 -1 -1 -2 -2 -2 -2 -2 -2
2 4 6 3 5 4 3 3 3 2 3 5 1 -1 -5 -3 -2 -2 -2 -2 -2 -2 -2 -3 -3 -4 -4 0 2 2 2 2 0 1 1 0 1 1 0 -0 -2 -2 -2 -1
3 3 6 5 5 3 3 3 2 4 3 2 2 -1 -5 -3 -3 -2 -2 -3 -2 -1 -1 -2 -2 -2 -3 -2 -0 1 3 3 2 1 1 1 0 2 2 2 3 2 1 -0
2 4 6 5 3 2 4 3 2 2 3 3 2 -0 -5 -5 -5 -4 -4 -2 -2 -1 -1 -0 -1 -1 -1 -2 -1 0 1 2 3 3 2 1 1 1 0 -0 -1 -0 0 1
1 2 1 3 4 3 4 3 2 2 3 3 3 -0 -3 -2 -1 -1 -0 0 0 0 -0 -1 -1 -0 -0 -0 -1 -1 1 2 3 2 2 1 1 0 0 1 1 1 1 0
2 3 1 2 2 2 2 2 2 3 2 3 1 1 -0 -1 -0 0 0 0 0 -0 -0 -1 -1 -1 1 1 0 -0 0 1 2 2 1 1 1 1 1 1 1 1 1 -1
1 2 1 1 0 1 2 2 1 2 2 2 1 1 -1 -0 -0 0 1 1 1 1 0 -1 -1 -1 -1 -1 2 1 1 1 1 2 1 1 1 1 1 1 1 1 -1 -1
2 1 1 2 -1 -1 1 0 0 1 1 2 3 1 0 -0 -0 -1 -0 -2 -2 -1 0 1 1 1 -0 -1 -1 2 1 1 1 2 1 1 1 1 1 1 1 0 -1 0
2 2 0 0 -0 -0 -2 -3 -3 1 1 0 0 -1 -2 -3 -4 -1 -2 -3 -4 -4 -3 -0 2 2 0 -1 -1 -0 2 2 2 2 1 1 1 1 1 1 1 -1 -0 0
1 2 2 2 1 -1 -0 -1 -1 0 2 -2 -2 -3 -5 -5 -4 -1 -3 -3 -3 -3 -4 -3 2 2 1 0 -1 -0 1 2 2 2 1 1 1 1 1 1 -0 -1 0 0
-1 -1 1 1 2 2 -1 -2 -2 -2 3 -4 -3 -3 -3 -3 -2 -2 -3 -2 -3 -3 -3 -3 1 2 1 0 -1 -0 1 2 2 2 1 1 1 1 1 1 -1 -1 0 -0
1 1 1 1 1 1 -3 -4 -1 1 -0 -3 -2 -2 -2 -2 -3 -2 -2 -2 -3 -2 -2 -3 1 2 2 1 0 -0 1 2 1 2 2 2 1 1 1 -1 -1 -1 -0 -1
1 1 2 2 4 3 -5 -3 0 -2 -2 -2 -2 -2 -2 -2 -2 -2 -2 -1 -1 -1 -2 -3 2 2 2 1 1 1 2 3 3 2 2 2 1 1 0 -1 -1 -1 -1 -1
1 -0 1 0 0 -4 -4 -2 -2 -2 -2 -2 -2 -2 -2 -2 -2 -2 -2 -2 -1 -1 -1 -0 1 2 2 1 1 1 1 1 1 2 2 1 1 1 -1 -1 -1 -1 -1 -1
-1 -4 -0 -1 -3 -4 -2 -2 -2 -2 -2 -2 -2 -2 -2 -2 -1 -2 -2 -2 -2 -1 -1 -0 0 1 2 1 1 1 1 1 1 1 1 1 0 -1 -1 -2 -1 -0 -0 -0
-2 -5 -4 -4 -3 -3 -2 -2 -3 -3 -4 -4 -3 -3 -2 -2 -2 -2 -2 -1 -1 -1 -1 -1 0 0 2 1 1 1 1 1 1 1 0 -0 -1 -2 -2 -2 -1 -1 -0 -0
-5 -5 -4 -5 -2 -3 -2 -2 -3 -5 -5 -6 -4 -4 -4 -3 -2 -2 -2 -2 -1 -2 -2 -2 -0 1 1 1 1 1 0 0 -0 -0 -1 -1 -1 -1 -2 -2 -2 -1 -1 -1

GFSCGP_850_dewp_066.txt.gz
Dewpoint
4 5 6 5 5 4 4 5 7 6 7 8 8 7 6 3 2 3 2 2 3 4 4 4 3 4 10 11 12 12 12 12 12 12 12 12 12 12 12 12 12 12 12 13
4 5 4 4 5 4 3 4 5 6 7 6 8 7 5 3 3 3 2 2 2 2 3 3 4 4 5 8 10 11 11 12 12 13 13 12 12 12 13 12 12 11 12 12
3 2 3 5 5 5 4 3 5 5 6 6 8 8 7 4 3 3 3 2 3 3 2 2 2 3 4 5 5 8 8 9 10 11 11 12 13 12 12 12 12 12 12 12
4 4 4 5 4 3 6 3 5 5 7 8 7 7 4 5 4 4 3 3 3 3 3 3 3 2 3 3 3 5 8 8 10 10 11 11 11 11 11 11 12 12 12 13
4 5 5 5 5 3 3 3 7 7 7 8 8 7 2 4 5 4 3 3 3 3 3 2 1 3 3 3 3 5 7 7 9 10 10 10 10 10 9 10 10 11 12 11
5 5 4 5 3 3 3 5 5 6 7 8 7 6 1 4 5 4 3 3 2 2 2 2 1 2 3 3 3 3 6 7 7 8 9 10 10 10 9 10 10 9 7 7
5 5 5 5 4 3 4 4 7 8 8 7 4 4 1 -2 -2 0 -1 -1 0 1 2 1 1 1 3 3 3 2 2 5 6 7 9 9 9 9 9 9 8 7 6 7
6 7 6 4 4 5 3 2 6 7 6 4 1 3 -0 -4 -5 -5 -4 -4 -4 -4 -3 -1 1 2 2 3 3 2 1 0 1 4 7 9 9 9 7 7 8 9 9 9
6 7 5 4 3 2 2 4 0 3 1 3 1 -1 -3 -5 -3 -2 -2 -3 -3 -4 -4 -4 -3 2 3 3 3 1 0 -0 -0 -0 0 4 8 8 7 7 7 8 4 0
4 6 5 4 2 1 0 -1 2 3 2 4 2 0 0 -2 -1 -2 -2 -2 -2 -2 -3 -3 -4 -2 3 3 3 3 3 2 2 1 1 2 5 5 5 1 -0 -0 -0 -1
3 3 5 3 5 5 3 2 2 2 3 3 1 -1 -6 -3 -2 -2 -2 -2 -2 -2 -2 -1 -1 -2 -3 -3 1 3 3 3 3 2 1 1 2 1 -0 0 1 -1 -2 -2
2 3 5 5 3 3 3 3 1 2 2 2 0 -1 -4 -3 -2 -2 -3 -2 -1 -1 -1 -1 -1 -1 -1 -1 -2 -3 -1 3 3 3 1 1 1 0 0 -0 -1 -1 -1 1
1 3 2 3 2 2 4 3 2 2 2 4 1 -0 -5 -4 -1 -1 -1 -0 0 -0 -1 -1 -1 -1 -1 -0 -0 -1 -1 -2 1 3 3 2 1 1 0 0 0 1 1 0
1 2 1 2 2 3 4 3 2 2 3 3 3 -1 0 0 1 0 0 0 0 0 -0 -1 -1 -1 -1 -1 0 1 0 -0 -0 2 3 3 2 2 1 1 1 0 0 1
1 2 0 2 2 2 2 3 3 2 2 3 1 1 0 0 0 0 1 1 1 0 0 0 -0 -0 -0 -1 -1 0 2 1 1 1 2 3 2 2 1 1 1 1 1 1
1 2 0 1 0 0 2 1 2 2 2 2 1 2 -0 -0 -0 0 -1 -3 -3 -3 -3 -3 -1 1 1 1 0 -1 -1 2 2 1 1 2 2 1 1 1 1 1 1 1
1 1 0 3 -0 -1 1 -1 1 1 1 1 3 1 -0 -1 -2 -1 -3 -3 -3 -3 -4 -5 -5 -2 1 1 1 0 -1 -0 2 2 1 2 2 1 1 1 1 1 1 1
2 1 -1 -1 -2 0 -3 -3 -1 1 0 -0 -1 -2 -4 -4 -4 -2 -2 -2 -3 -3 -5 -6 -7 -7 -1 1 1 1 -0 -1 0 2 2 2 2 1 1 1 1 1 1 0
0 1 1 1 0 -1 -1 -1 -1 0 0 -4 -3 -3 -3 -3 -3 -2 -2 -3 -3 -3 -4 -4 -4 -6 -1 2 1 1 -0 -0 -0 1 2 2 2 2 1 1 1 1 1 -1
-2 -1 -0 1 2 2 -1 -2 -2 -2 2 -2 -2 -2 -2 -3 -2 -3 -4 -3 -3 -3 -3 -3 -4 -4 2 2 2 1 -0 -1 -0 1 2 2 2 2 2 1 1 1 1 -1
1 0 1 1 1 0 -3 -4 -2 0 -1 -2 -2 -2 -2 -2 -3 -2 -2 -2 -2 -2 -2 -2 -2 0 1 2 2 1 0 1 1 2 3 3 2 2 2 1 1 1 -1 -1
1 1 1 1 3 3 -4 -3 0 -2 -2 -2 -2 -3 -2 -2 -2 -2 -3 -2 -2 -2 -1 -1 -1 0 0 1 2 1 1 1 3 3 3 3 2 2 2 1 1 0 -1 -1
1 -1 0 -0 0 -3 -3 -3 -3 -3 -3 -3 -3 -3 -2 -2 -2 -2 -2 -2 -2 -2 -1 -1 -1 -1 -1 1 2 1 1 1 1 2 2 2 2 2 2 1 1 -1 -1 -1
-1 -3 -1 -1 -3 -2 -2 -2 -3 -3 -3 -3 -3 -3 -3 -2 -2 -2 -2 -2 -1 -1 -1 -1 -2 -1 -1 1 2 1 1 1 1 1 1 2 2 1 1 1 -0 -1 -1 -1
-1 -3 -3 -2 -2 -2 -2 -2 -3 -4 -4 -5 -5 -4 -4 -4 -4 -2 -2 -2 -2 -2 -2 -2 -2 -2 -2 0 1 2 1 1 1 1 1 1 1 1 1 -0 -1 -1 -2 -1
-5 -4 -4 -3 -3 -3 -2 -2 -3 -5 -6 -7 -8 -9 -9 -8 -8 -7 -8 -7 -6 -4 -4 -3 -3 -2 -2 -2 -1 1 1 1 1 0 0 0 0 0 -0 -1 -1 -2 -1 -1

GFSCGP_850_dewp_069.txt.gz
Dewpoint
3 5 4 5 5 5 5 7 7 7 7 7 7 8 6 6 4 3 3 3 4 4 4 4 5 9 11 12 11 11 11 11 11 12 11 12 12 12 12 12 12 12 12 12
4 6 3 3 4 5 5 7 7 7 7 6 7 8 7 7 6 3 2 3 2 3 3 3 3 4 10 11 11 11 11 12 11 12 11 12 12 12 12 12 12 12 12 12
2 3 3 4 4 6 5 6 6 7 7 7 7 8 7 7 5 3 3 3 2 1 1 2 3 3 3 7 10 10 11 11 12 12 12 12 12 12 12 12 12 12 12 11
3 3 4 4 4 4 5 3 4 7 6 7 7 8 5 6 5 4 3 3 3 3 3 3 2 2 2 2 4 7 8 9 10 10 10 11 11 10 11 10 11 11 11 11
5 4 4 5 5 3 5 5 4 5 7 7 7 8 4 3 4 4 3 3 3 3 3 3 2 3 2 2 2 3 5 6 9 9 9 10 10 10 10 10 10 10 10 10
5 4 4 5 4 4 4 6 6 6 7 8 7 7 2 3 4 3 2 2 2 2 2 2 2 2 1 2 3 3 4 5 6 7 8 8 9 9 10 10 10 10 9 9
5 5 4 6 4 4 4 4 8 7 8 8 6 7 4 -1 -3 1 1 -0 0 1 1 1 2 1 1 2 3 3 3 3 5 6 7 7 8 9 9 10 11 9 10 10
6 6 5 4 4 5 4 2 5 7 7 6 3 6 -0 -5 -4 -4 -4 -3 -3 -3 -2 0 1 1 1 2 3 3 3 2 3 4 6 7 7 8 9 9 10 9 10 8
6 6 5 4 3 3 5 4 1 2 1 4 2 -1 -4 -3 -2 -2 -2 -2 -2 -3 -3 -4 -2 2 3 3 3 2 2 1 1 0 0 1 3 6 8 9 9 8 8 8
4 7 4 4 2 1 1 -1 3 3 4 3 2 1 1 -2 -1 -2 -1 -1 -1 -1 -1 -1 -2 -3 -0 2 3 3 3 2 2 2 1 1 1 2 7 9 9 8 7 3
2 3 4 3 5 5 2 2 2 2 3 4 3 -0 -5 -3 -2 -1 -2 -1 -1 -1 -0 -1 -1 -1 -1 -1 -2 -2 -0 2 3 3 3 2 1 3 5 6 6 1 2 3
2 3 4 5 3 3 3 3 0 2 2 1 -0 0 -4 -2 -2 -2 -1 -1 -1 -1 -1 -1 -1 -1 -2 -1 -0 -0 -0 -1 0 2 3 3 2 2 2 2 2 1 2 1
1 2 1 1 0 2 4 3 2 1 1 2 1 0 -2 -1 -0 0 0 0 0 0 -0 -0 -1 -1 -1 -1 -1 -1 0 0 0 0 1 3 3 2 2 1 0 0 -1 -1
0 1 0 2 1 2 4 3 1 1 1 2 2 1 1 1 1 0 1 1 0 -1 -1 -1 -1 -1 -1 -1 -1 -1 -1 0 1 1 1 2 3 3 2 2 1 0 1 1
-0 2 0 1 2 2 2 3 2 2 1 2 1 0 0 1 0 1 -0 -2 -2 -3 -3 -4 -4 -3 -1 -1 -1 -1 -1 -1 -0 1 1 1 2 3 3 2 2 1 1 1
0 2 0 0 -1 -0 2 1 2 2 1 1 1 2 -1 0 -0 -2 -3 -3 -3 -4 -4 -5 -6 -6 -7 -6 -1 -0 -0 -1 -1 -0 2 2 2 2 2 2 1 1 1 1
1 1 -0 2 -1 -1 1 -1 1 1 1 1 3 1 -0 -3 -3 -2 -2 -3 -3 -3 -4 -5 -5 -5 -6 -8 -5 -1 0 0 -1 -1 -0 2 2 2 2 2 1 1 1 1
1 1 -1 -1 -2 0 -3 -2 -2 0 -1 -1 -2 -3 -4 -4 -4 -2 -2 -2 -3 -3 -3 -4 -4 -6 -5 -7 -3 -0 0 1 -0 -1 -1 1 2 2 2 2 1 1 1 1
-1 0 1 -0 -0 -2 -1 -1 -0 0 0 -3 -3 -3 -3 -3 -3 -2 -2 -2 -3 -3 -3 -3 -4 -3 -4 -3 1 1 1 1 -0 -1 -1 -0 2 2 2 2 2 1 1 1
-2 -2 0 1 2 2 -2 -2 -2 -2 1 -3 -3 -2 -2 -3 -2 -4 -2 -3 -3 -3 -3 -2 -3 -2 -2 -1 1 1 2 1 0 -0 -1 0 2 3 2 2 2 1 1 1
1 0 1 1 1 0 -3 -4 -2 0 -2 -2 -2 -2 -2 -3 -3 -3 -2 -3 -3 -2 -2 -1 -1 -1 -1 -1 -0 1 2 1 1 1 2 2 2 3 3 2 2 2 1 1
1 1 1 1 2 1 -4 -3 -0 -2 -2 -2 -2 -3 -2 -2 -3 -3 -3 -2 -2 -2 -2 -2 -1 -2 -2 -1 -1 0 2 1 1 1 2 3 3 3 3 2 2 2 1 1
1 -1 0 -0 -0 -3 -3 -3 -3 -3 -3 -2 -3 -3 -3 -3 -3 -3 -3 -3 -2 -2 -2 -1 -1 -2 -2 -2 -1 1 1 1 1 1 1 1 3 3 2 2 2 1 1 1
-1 -3 -1 -1 -2 -2 -2 -2 -3 -3 -3 -3 -4 -4 -4 -4 -6 -7 -8 -7 -7 -5 -4 -4 -3 -3 -3 -3 -2 -1 1 1 1 1 1 1 1 2 2 2 2 1 1 1
-2 -3 -3 -2 -2 -2 -2 -2 -3 -4 -5 -6 -8 -9 -10 -11 -12 -10 -10 -10 -11 -11 -10 -9 -9 -6 -5 -4 -2 -2 -1 1 1 1 0 1 1 1 1 1 1 1 1 -0
-4 -3 -2 -2 -4 -3 -3 -3 -3 -6 -8 -9 -11 -12 -11 -11 -10 -10 -11 -11 -12 -13 -14 -15 -13 -11 -10 -8 -6 -3 -2 -1 0 1 1 1 0 0 1 1 0 0 -0 -1

GFSCGP_850_dewp_072.txt.gz
Dewpoint
3 5 5 4 3 4 3 5 6 7 7 7 7 6 6 6 6 4 5 4 5 6 9 9 8 9 9 9 10 9 10 8 10 8 8 9 10 9 8 10 13 12 11 11
4 6 3 4 5 5 4 5 6 6 7 7 7 6 5 7 7 6 5 3 3 4 4 5 5 6 9 9 10 10 11 11 11 9 9 8 7 8 8 10 12 12 11 12
4 4 3 4 4 6 6 6 6 6 6 6 7 7 6 6 6 5 5 3 3 2 2 3 3 4 4 6 9 10 10 11 11 12 11 11 10 11 11 12 12 12 11 12
4 3 3 4 5 5 7 4 5 7 6 7 6 9 7 7 7 6 5 3 3 3 1 1 1 2 3 3 3 8 10 10 10 11 11 12 12 11 12 11 11 10 11 11
5 4 5 5 5 5 6 4 5 6 7 7 7 8 5 5 7 6 5 3 3 3 3 3 3 2 2 2 2 2 4 7 8 8 9 9 9 10 9 8 10 11 11 11
5 3 4 4 4 4 4 5 6 6 7 7 7 6 3 2 2 3 3 2 2 3 3 3 2 2 2 2 1 2 3 3 7 7 8 8 8 9 9 10 10 8 10 9
5 5 4 5 6 4 5 6 8 8 8 8 5 6 5 -3 -4 -2 -2 -2 0 1 1 1 1 2 1 1 1 2 2 3 4 7 7 7 8 8 8 9 9 10 10 9
4 3 5 4 5 6 4 3 5 7 8 7 6 7 0 -4 -2 -3 -2 -2 -2 -3 -2 2 2 1 2 2 2 3 3 3 2 2 4 7 7 8 7 8 8 8 9 10
6 6 5 4 3 2 4 4 1 2 1 6 4 -1 -4 -2 -1 -1 -1 -1 -0 -0 -1 -2 -0 3 3 3 3 3 2 2 2 1 1 1 0 0 1 2 6 8 9 9
4 7 5 4 2 1 2 -0 2 3 4 5 2 1 1 -1 -0 -1 -1 -0 -0 -0 -0 -1 -1 -1 -1 -1 1 3 3 3 3 3 3 2 2 2 1 1 3 7 8 8
2 3 5 3 5 4 2 2 2 1 2 4 4 0 -3 -3 -1 -1 -1 -0 -0 -1 -1 -1 -1 -1 -2 -2 -2 -2 -3 -2 -1 0 2 3 3 2 2 3 7 9 10 9
2 2 5 5 3 3 3 2 -1 2 2 0 1 1 -2 -3 -2 -1 -0 0 0 0 -0 -1 -1 -1 -2 -2 -2 -2 -2 -1 -1 -2 -2 -0 2 3 2 2 4 6 6 3
0 1 0 1 0 1 3 2 1 -0 -0 1 1 1 -1 -0 0 0 0 1 -0 -1 -1 -1 -1 -1 -1 -2 -2 -2 -2 -2 -1 -0 -1 -1 0 2 3 2 2 2 2 0
-0 0 -0 1 0 2 4 3 1 0 0 2 -0 1 1 1 1 1 1 -1 -2 -3 -3 -4 -4 -4 -5 -3 -1 -1 -2 -2 -2 -1 0 0 -0 1 3 3 2 1 1 0
-1 2 0 0 2 2 3 3 2 1 0 1 1 1 1 1 0 1 -2 -3 -3 -3 -4 -4 -5 -5 -6 -6 -7 -7 -3 -1 -1 -2 -2 -0 2 1 2 3 3 3 2 1
-0 1 -0 0 -1 -1 2 1 2 2 1 1 -1 1 -1 -0 0 -2 -3 -3 -3 -3 -3 -4 -4 -5 -6 -6 -6 -7 -7 -4 -2 -1 -1 -1 0 2 1 2 3 2 2 1
0 0 -1 1 -1 -2 1 -1 1 1 1 1 2 0 -0 -2 -1 -2 -2 -2 -2 -2 -3 -4 -4 -5 -5 -5 -5 -5 -5 -4 -1 -0 -0 -1 -1 1 2 2 2 2 2 1
0 -0 -1 -1 -2 1 -2 -2 -2 0 -1 -1 -2 -3 -3 -3 -3 -3 -2 -2 -2 -3 -3 -4 -4 -4 -3 -3 -2 -1 -1 -1 0 0 0 -1 -1 -0 2 2 2 2 1 1
-1 -1 0 -0 -1 -3 -1 0 -0 0 0 -3 -3 -3 -3 -3 -3 -2 -2 -2 -2 -3 -3 -3 -2 -2 -2 -1 -1 -1 -1 -1 1 1 1 0 -0 -0 1 2 2 2 2 1
-2 -2 0 0 1 1 -2 -2 -2 -2 -0 -3 -3 -3 -3 -3 -2 -3 -2 -3 -3 -3 -3 -2 -2 -1 -1 -1 -1 -1 -1 0 1 1 1 1 2 1 1 3 2 2 2 2
1 -0 0 1 1 -1 -4 -3 -3 -0 -2 -2 -3 -2 -3 -3 -3 -3 -3 -3 -3 -3 -3 -2 -2 -2 -2 -2 -2 -2 -1 0 1 1 1 1 2 3 2 3 3 2 2 2
1 0 1 0 1 0 -4 -2 -1 -3 -2 -2 -2 -3 -3 -3 -3 -3 -3 -4 -5 -7 -7 -7 -6 -6 -5 -3 -2 -2 -2 -1 0 2 1 1 1 3 3 3 2 2 2 2
0 -2 -0 -1 -1 -3 -3 -2 -3 -2 -2 -2 -3 -3 -3 -3 -4 -5 -8 -9 -10 -11 -11 -11 -11 -12 -13 -10 -7 -4 -2 -2 -1 1 1 1 1 1 3 3 2 2 2 2
-2 -2 -1 -2 -2 -3 -2 -2 -3 -3 -3 -3 -3 -4 -5 -8 -10 -12 -12 -13 -13 -14 -14 -15 -16 -17 -18 -15 -13 -10 -7 -2 -2 -1 1 1 1 1 2 2 2 2 2 2
-2 -3 -3 -2 -3 -2 -2 -2 -3 -3 -5 -6 -8 -10 -11 -12 -12 -12 -13 -13 -14 -16 -17 -18 -18 -18 -18 -18 -18 -16 -12 -8 -3 -2 -1 1 1 0 1 1 1 1 1 1
-4 -3 -2 -1 -4 -3 -4 -3 -3 -4 -6 -9 -10 -12 -12 -12 -12 -12 -13 -14 -16 -18 -18 -15 -13 -13 -14 -14 -16 -18 -15 -13 -7 -6 -4 -2 -0 -0 -0 -0 0 0 0 -0

GFSCGP_850_dewp_075.txt.gz
Dewpoint
2 4 4 5 4 3 5 5 6 6 5 6 6 6 6 7 6 5 6 5 8 8 10 9 8 10 10 11 10 9 8 9 7 7 8 9 9 8 8 7 10 9 11 11
3 5 3 3 3 4 5 6 7 5 7 6 6 6 6 6 7 7 6 5 5 6 9 8 8 9 10 11 10 9 9 10 10 9 9 7 8 8 9 9 8 8 9 11
5 4 3 3 3 6 5 5 6 6 6 5 7 7 6 6 6 6 5 5 4 4 5 6 7 8 7 9 9 9 10 9 7 9 10 10 10 10 10 10 10 9 10 12
4 3 3 4 5 5 6 4 4 5 7 7 6 9 6 6 6 6 6 5 4 3 2 2 3 3 3 4 7 8 9 10 10 10 10 10 10 11 11 12 11 11 12 12
4 5 4 4 5 5 6 4 5 5 6 7 7 7 5 6 7 6 6 5 4 4 3 3 3 2 2 2 3 3 4 9 9 10 10 11 11 10 8 8 8 8 8 10
4 3 4 4 3 4 4 5 6 6 7 7 8 6 5 1 2 4 5 4 3 4 3 3 2 2 2 2 2 2 2 3 8 8 8 9 9 10 10 10 10 9 10 9
4 4 5 3 6 5 4 5 7 7 7 8 7 6 3 -3 -3 -0 3 0 0 2 2 2 2 2 2 2 1 2 2 2 3 6 8 9 9 9 8 9 9 8 9 9
2 5 5 5 5 6 5 4 5 7 7 9 7 5 4 -2 -1 -1 -1 1 1 1 2 3 3 3 2 2 2 3 3 3 4 3 3 4 6 7 7 8 8 8 9 9
7 7 5 5 3 3 4 4 0 5 5 7 3 -1 -2 -1 -1 -0 0 1 0 0 -0 0 1 1 2 3 3 3 2 2 2 2 1 1 1 0 0 0 0 1 7 9
5 7 5 4 2 1 2 -0 2 4 7 8 3 1 1 1 1 -0 -0 -0 -0 -0 -1 -1 -1 -1 -1 -1 -1 -1 0 2 3 3 3 3 3 3 3 2 2 2 4 9
1 3 5 2 5 4 2 2 1 1 3 5 5 0 -3 -2 -1 0 -0 0 0 -0 -0 -1 -1 -2 -2 -2 -2 -2 -2 -1 -1 -2 -3 -2 0 2 3 2 2 4 7 9
2 3 5 5 2 2 3 2 -1 3 2 -0 1 1 -1 -3 -2 -0 1 0 -1 -1 -1 -1 -1 -2 -2 -3 -3 -3 -3 -3 -2 -1 -1 -1 -2 -2 -0 2 2 4 7 10
0 1 2 3 1 1 3 2 0 -1 -0 1 2 1 -1 -0 0 0 1 -1 -2 -3 -3 -3 -3 -4 -4 -3 -3 -3 -3 -3 -4 -3 -3 -1 0 -0 -0 2 2 2 4 5
-1 1 -0 2 1 2 4 3 1 -0 1 1 -0 1 1 1 1 1 -1 -2 -3 -3 -4 -4 -4 -5 -5 -5 -6 -6 -6 -5 -4 -3 -3 -3 -1 1 0 1 2 2 2 2
-1 2 -0 -0 1 2 3 3 2 1 -0 0 -0 1 0 1 1 0 -2 -3 -3 -3 -3 -3 -3 -4 -5 -6 -7 -7 -7 -7 -7 -6 -3 -1 -2 -1 1 0 2 3 2 1
-1 1 -1 0 -1 -0 2 2 2 2 1 0 -1 0 -1 -0 0 -2 -2 -3 -2 -2 -3 -3 -4 -5 -5 -6 -6 -6 -6 -6 -6 -6 -5 -3 -1 -1 -1 2 1 2 2 3
-0 -0 -1 1 -2 -2 1 -0 2 2 1 0 1 -0 -1 -1 -1 -2 -2 -2 -2 -2 -3 -3 -4 -4 -4 -3 -3 -3 -3 -3 -4 -4 -4 -1 -0 -0 -1 1 2 2 2 2
-0 -1 -2 -0 -1 1 -2 -1 -2 0 -0 -1 -1 -1 -3 -3 -3 -2 -2 -2 -2 -2 -3 -3 -4 -4 -3 -2 -2 -2 -2 -2 -3 -2 -0 0 0 0 -0 -0 2 2 2 2
-2 -1 -0 0 -0 -3 -2 -0 -0 0 -0 -2 -3 -3 -3 -3 -3 -2 -2 -2 -2 -3 -3 -3 -3 -3 -3 -2 -2 -3 -3 -2 -2 -1 1 1 1 1 1 0 1 2 2 2
-2 -2 -0 -0 1 0 -3 -2 -2 -2 -1 -3 -3 -3 -3 -4 -1 -3 -2 -3 -3 -3 -3 -3 -3 -4 -5 -3 -3 -3 -3 -2 -2 -1 1 1 1 1 2 2 1 2 2 2
1 -0 0 1 1 -1 -4 -3 -3 -0 -3 -3 -3 -2 -3 -3 -4 -3 -3 -4 -4 -4 -6 -7 -9 -9 -12 -11 -9 -8 -5 -3 -2 -2 -1 1 1 1 1 3 2 2 2 2
1 0 1 0 1 -1 -4 -2 -2 -3 -3 -2 -2 -3 -3 -3 -3 -4 -4 -6 -9 -11 -12 -13 -14 -15 -17 -16 -15 -16 -14 -12 -5 -3 -2 0 2 1 1 2 3 3 2 2
0 -2 -1 -1 -1 -4 -4 -2 -2 -3 -3 -2 -3 -3 -3 -4 -4 -5 -9 -11 -12 -12 -13 -15 -16 -18 -18 -18 -17 -18 -17 -16 -16 -11 -4 -2 -1 1 1 1 2 2 2 2
-2 -3 -1 -2 -3 -3 -3 -3 -3 -3 -3 -3 -4 -4 -5 -6 -8 -11 -11 -11 -11 -12 -14 -16 -17 -16 -15 -15 -15 -15 -16 -17 -17 -16 -13 -8 -3 -1 1 1 1 1 1 1
-2 -3 -3 -2 -4 -3 -3 -3 -3 -3 -3 -4 -5 -7 -9 -10 -12 -12 -11 -11 -12 -14 -17 -15 -13 -14 -15 -15 -15 -15 -15 -17 -18 -18 -17 -15 -11 -5 -2 -0 0 0 0 1
-3 -3 -1 -1 -3 -3 -4 -4 -3 -3 -4 -5 -7 -9 -11 -11 -11 -11 -12 -12 -14 -16 -15 -13 -13 -14 -15 -14 -14 -14 -15 -16 -17 -18 -19 -18 -15 -12 -6 -2 -1 0 -0 -0

GFSCGP_850_dewp_078.txt.gz
Dewpoint
1 3 3 1 4 5 4 6 6 1 3 3 6 5 5 5 6 6 7 7 8 9 11 11 8 8 8 8 8 8 7 8 8 8 9 9 9 9 8 10 9 9 10 11
2 3 -0 2 4 5 5 6 7 6 5 4 6 6 4 4 6 6 6 7 9 9 9 9 11 10 8 9 10 10 10 10 10 9 8 9 9 10 9 10 9 9 9 9
4 2 2 5 4 5 5 6 6 7 6 5 6 7 6 5 6 7 6 6 7 8 9 8 9 9 10 10 10 10 11 10 9 7 8 8 10 10 9 10 10 11 10 9
3 3 4 5 5 5 6 4 5 5 7 9 6 8 6 5 7 7 6 6 6 6 6 8 9 9 9 9 9 10 10 10 10 10 10 9 9 10 10 10 10 10 11 11
5 4 4 5 5 5 5 5 5 5 5 7 7 9 6 6 8 7 7 7 6 5 5 5 4 4 5 5 5 7 9 10 10 11 11 10 10 10 10 8 8 10 11 9
4 3 4 4 3 5 5 4 5 5 5 9 8 8 6 4 1 5 4 5 5 6 4 3 3 2 2 3 3 3 3 7 10 9 10 10 10 10 9 10 10 9 9 8
3 5 3 3 6 6 6 5 8 8 9 9 7 6 5 -0 -1 0 3 2 4 3 4 3 3 3 3 2 2 2 2 3 4 9 9 8 9 9 9 9 8 9 9 8
6 7 5 4 5 6 5 4 5 6 9 9 3 7 5 -1 0 3 3 3 2 3 2 4 3 3 3 3 3 3 3 4 4 5 6 7 8 9 9 9 9 9 9 9
7 7 5 4 3 4 4 4 1 6 6 5 5 2 0 -0 1 2 3 3 2 1 1 1 1 1 2 3 3 3 3 2 2 2 2 2 2 2 2 3 4 5 6 8
4 7 4 3 2 1 1 -1 4 5 7 7 5 2 3 2 1 0 1 1 1 1 -0 -0 -1 -1 -1 -1 -1 -1 -1 -0 1 2 3 3 3 3 3 3 2 2 2 3
2 3 4 3 5 5 2 2 1 1 3 3 4 3 -1 1 0 0 0 0 -0 -1 -1 -1 -2 -2 -2 -2 -2 -2 -3 -2 -2 -1 -1 -2 -2 -2 0 2 2 2 3 4
1 3 6 4 2 1 3 2 -1 2 2 1 0 1 -2 -2 -0 0 0 -1 -2 -3 -3 -4 -4 -4 -4 -4 -4 -3 -3 -3 -3 -3 -3 -2 -1 -1 -1 -1 1 2 3 6
0 3 6 5 2 1 3 1 -1 -1 0 1 2 1 -2 -2 -0 1 -1 -2 -2 -3 -3 -4 -4 -4 -4 -5 -5 -5 -6 -6 -6 -4 -3 -3 -3 -2 -0 -1 -0 2 2 5
-1 1 2 3 3 3 3 2 1 0 3 -1 -0 1 1 0 1 1 -1 -2 -3 -2 -2 -3 -3 -4 -4 -5 -6 -6 -7 -7 -7 -7 -7 -6 -3 -2 -2 0 0 1 2 2
-0 4 2 0 1 2 3 3 2 3 -0 0 -1 -0 0 0 0 0 -2 -2 -2 -2 -2 -2 -3 -4 -4 -5 -5 -6 -6 -7 -7 -8 -8 -8 -7 -3 -1 -2 1 1 2 2
-1 4 1 3 -1 1 2 2 2 1 0 -0 -1 0 -2 -0 0 -1 -2 -2 -2 -2 -2 -2 -3 -4 -5 -5 -6 -6 -5 -5 -5 -5 -5 -6 -6 -5 -3 -1 -1 2 2 2
1 2 3 4 -1 -1 1 -0 1 2 1 -0 -0 0 -1 0 -0 -1 -2 -2 -2 -2 -2 -2 -3 -4 -5 -4 -5 -4 -4 -4 -4 -4 -5 -4 -3 -2 -1 -0 -0 -0 2 2
0 1 2 4 0 3 -2 -2 -1 -1 0 -0 -1 -0 -1 -0 -1 -2 -2 -2 -2 -2 -2 -2 -2 -2 -2 -3 -4 -4 -4 -4 -3 -3 -3 -2 -1 0 0 0 1 0 1 2
-2 -1 1 2 2 -2 -2 -1 -1 -0 -0 -2 -1 -2 -2 -3 -2 -2 -2 -2 -2 -3 -3 -3 -2 -2 -4 -4 -6 -5 -4 -4 -3 -3 -3 -2 -0 1 1 1 1 2 1 2
-2 -2 -1 -0 0 -2 -2 -2 -2 -1 -2 -3 -2 -2 -2 -3 0 -2 -2 -3 -3 -3 -3 -4 -5 -8 -7 -14 -14 -15 -13 -11 -8 -5 -3 -2 -0 1 1 1 1 2 2 1
1 1 2 1 1 -1 -4 -3 -3 -1 -2 -3 -3 -2 -2 -2 -3 -3 -4 -4 -4 -5 -8 -10 -12 -13 -17 -19 -20 -20 -20 -20 -19 -18 -14 -6 -3 -1 1 1 1 1 3 2
1 1 1 1 2 -1 -3 -2 -1 -3 -3 -2 -2 -2 -2 -3 -3 -4 -4 -4 -7 -11 -13 -14 -15 -17 -19 -20 -18 -17 -17 -17 -18 -19 -19 -17 -13 -4 -2 -0 1 1 2 2
0 -1 -1 -1 -2 -4 -3 -2 -2 -3 -2 -2 -2 -3 -3 -3 -4 -4 -6 -10 -12 -12 -13 -15 -17 -19 -18 -17 -17 -18 -17 -17 -18 -18 -18 -18 -18 -16 -7 -2 -0 1 1 2
-2 -3 -1 -1 -3 -3 -3 -3 -3 -3 -3 -3 -3 -3 -3 -3 -5 -8 -11 -11 -11 -12 -13 -17 -18 -16 -16 -16 -16 -14 -14 -14 -15 -16 -17 -18 -19 -19 -17 -12 -3 -0 0 1
-2 -2 -1 -1 -3 -3 -3 -3 -3 -3 -3 -3 -3 -4 -6 -8 -10 -11 -9 -10 -10 -12 -15 -16 -14 -15 -16 -15 -15 -14 -14 -14 -14 -15 -16 -17 -17 -18 -19 -18 -14 -5 -1 -0
-3 -2 -1 -3 -3 -3 -3 -4 -3 -3 -3 -3 -5 -7 -9 -10 -10 -9 -10 -10 -12 -13 -15 -15 -13 -13 -12 -13 -13 -13 -13 -14 -15 -17 -17 -18 -19 -19 -18 -18 -19 -13 -5 -1

GFSCGP_850_dewp_084.txt.gz
Dewpoint
1 4 3 1 2 1 1 2 3 2 1 4 4 2 -0 1 4 5 5 5 2 3 6 7 7 9 8 10 10 9 9 8 9 10 9 9 7 7 10 8 10 11 11 11
2 4 -0 -1 3 3 4 3 4 3 2 4 5 2 0 1 4 4 6 5 6 7 8 8 7 8 9 9 10 10 9 9 7 10 10 11 10 9 9 10 12 11 11 11
3 0 1 3 4 5 4 4 5 5 5 4 3 3 2 3 3 3 5 6 6 7 9 8 10 9 8 10 10 10 10 10 10 11 10 10 10 10 11 11 11 10 11 10
4 1 1 3 5 5 6 3 4 5 5 6 4 5 4 4 4 4 6 7 8 9 9 7 6 6 9 9 10 10 10 10 10 10 10 10 10 10 10 10 10 10 10 10
3 4 4 6 6 5 5 4 4 6 7 6 6 8 6 5 6 4 7 8 8 8 9 8 8 9 8 8 9 8 10 10 8 8 9 9 9 9 10 9 10 10 9 10
4 2 4 3 3 4 4 5 6 6 7 7 7 7 7 6 5 4 5 6 6 6 8 8 8 7 8 9 10 10 9 8 7 7 8 9 8 8 7 8 8 8 9 8
4 5 3 3 5 4 5 7 9 8 9 8 7 5 6 5 4 4 5 5 5 6 6 6 7 6 6 6 6 6 7 8 10 10 10 10 10 10 8 7 8 8 8 7
7 7 5 4 5 7 6 7 8 9 9 8 5 7 6 4 4 4 4 4 4 5 5 6 6 5 5 6 6 7 8 9 8 9 10 9 8 8 8 9 10 9 8 9
7 7 5 4 4 3 5 7 4 9 5 8 7 6 5 4 4 4 4 4 3 4 4 3 3 4 3 4 4 4 4 4 4 4 5 6 8 9 8 8 8 9 9 9
6 8 5 3 4 3 3 1 6 8 10 9 7 7 8 6 5 4 3 3 3 2 2 1 2 2 2 1 1 1 1 1 2 2 2 3 3 3 3 5 7 9 9 9
3 6 4 3 4 4 3 2 1 1 3 6 7 7 2 6 5 4 3 2 -0 0 -1 -2 -2 -2 -2 -1 -2 -2 -3 -3 -3 -3 -2 -2 -2 -1 -0 1 2 3 3 3
1 3 6 3 1 1 3 0 -1 5 3 3 4 4 -0 1 0 -0 -1 -1 -2 -2 -2 -2 -2 -3 -3 -4 -5 -5 -5 -6 -6 -6 -6 -6 -5 -4 -4 -3 -1 -1 -1 -0
1 2 6 4 3 2 1 -1 0 1 4 2 5 4 -0 0 -0 -1 -2 -2 -2 -2 -2 -2 -2 -2 -2 -3 -4 -4 -5 -5 -6 -7 -7 -8 -8 -7 -7 -6 -4 -3 -3 -1
1 2 3 5 4 3 3 1 -0 2 4 2 2 2 2 1 0 -1 -2 -2 -2 -2 -2 -2 -2 -2 -2 -3 -4 -4 -5 -5 -6 -6 -6 -7 -7 -7 -8 -8 -7 -5 -3 -2
1 3 2 0 1 2 2 1 1 1 -1 2 1 2 1 1 1 -1 -2 -2 -2 -2 -2 -2 -2 -2 -2 -3 -4 -4 -4 -5 -5 -4 -5 -6 -6 -6 -6 -6 -6 -6 -5 -3
-0 3 2 1 -0 0 1 1 2 2 1 -1 0 1 -1 -1 0 -1 -2 -2 -2 -2 -2 -2 -2 -2 -2 -2 -3 -4 -5 -5 -4 -4 -3 -4 -5 -5 -5 -5 -4 -4 -3 -2
1 3 4 4 -0 -0 2 -0 1 2 1 1 2 0 -1 -0 0 -1 -2 -2 -2 -2 -2 -2 -2 -2 -2 -3 -5 -8 -9 -10 -12 -10 -9 -10 -11 -9 -8 -5 -3 -2 -2 -2
-0 1 3 4 2 3 -2 -3 -2 -0 -0 -0 0 -0 -0 -0 -0 -1 -1 -1 -2 -2 -2 -2 -2 -2 -3 -4 -9 -16 -17 -19 -20 -21 -22 -22 -22 -22 -18 -14 -10 -6 -1 0
-2 -1 1 3 1 -2 -2 -1 -0 1 0 -1 -0 -1 -1 -1 -1 -1 -1 -1 -2 -2 -2 -3 -4 -5 -7 -10 -15 -18 -19 -19 -19 -19 -20 -21 -22 -22 -23 -23 -22 -13 -7 -3
-1 -2 1 1 1 -1 -1 -2 -2 -2 1 -2 -1 -1 -2 -2 1 -1 -2 -2 -2 -3 -4 -5 -6 -10 -15 -17 -18 -19 -19 -19 -20 -20 -21 -20 -19 -18 -19 -19 -19 -20 -16 -8
0 0 1 0 1 -0 -2 -2 -2 0 0 -3 -2 -1 -2 -1 -2 -2 -2 -3 -3 -4 -4 -6 -10 -11 -13 -15 -18 -19 -19 -19 -19 -20 -20 -18 -17 -14 -14 -15 -17 -16 -18 -18
0 1 1 0 1 1 -3 -2 -1 -2 -3 -2 -2 -2 -2 -2 -2 -2 -3 -3 -3 -5 -7 -10 -11 -13 -14 -16 -17 -17 -17 -15 -13 -13 -17 -19 -18 -17 -17 -16 -15 -14 -14 -14
-0 -1 0 -1 0 -3 -3 -2 -2 -3 -2 -2 -2 -2 -2 -2 -2 -3 -4 -5 -7 -9 -10 -11 -12 -14 -16 -16 -14 -12 -12 -10 -10 -13 -16 -16 -17 -17 -17 -17 -17 -16 -14 -15
-2 -3 -1 -2 -3 -3 -4 -3 -3 -3 -2 -2 -2 -2 -2 -2 -3 -4 -6 -8 -9 -10 -10 -12 -14 -15 -16 -15 -12 -10 -10 -10 -12 -13 -14 -15 -15 -17 -17 -17 -17 -17 -17 -16
-2 -2 -2 -2 -3 -3 -3 -3 -3 -3 -3 -3 -2 -3 -3 -4 -6 -7 -8 -9 -9 -10 -13 -13 -13 -11 -10 -10 -10 -11 -12 -11 -10 -11 -12 -15 -17 -18 -19 -18 -18 -18 -19 -14
-2 -2 -1 -2 -3 -3 -3 -3 -3 -2 -2 -2 -2 -3 -4 -5 -7 -9 -11 -13 -13 -14 -13 -11 -10 -9 -9 -10 -13 -13 -12 -11 -11 -11 -13 -14 -15 -16 -16 -17 -21 -20 -16 -15

GFSCGP_850_dewp_090.txt.gz
Dewpoint
1 1 2 0 1 -0 -0 1 2 1 -1 1 2 2 2 1 2 -0 -1 0 1 -3 -1 -3 3 5 6 5 7 7 8 8 8 8 9 10 10 10 9 9 8 10 10 11
2 3 -0 -0 0 2 2 3 3 2 1 3 4 4 2 2 1 0 1 2 3 6 3 5 5 6 6 6 8 8 8 9 9 8 8 9 10 10 11 9 8 7 6 10
1 -0 -0 1 2 3 2 3 3 4 3 2 3 3 3 2 2 4 4 5 4 3 4 4 5 6 7 7 10 11 10 10 10 8 8 9 10 11 12 12 11 11 10 9
2 1 1 2 3 3 5 2 5 6 6 5 4 2 4 4 4 4 6 7 7 8 6 5 4 7 9 9 9 9 9 10 10 10 9 10 10 10 10 11 10 9 8 8
-1 3 3 4 3 4 4 4 6 5 5 5 5 6 3 3 4 4 4 6 6 7 8 8 8 2 8 9 9 9 10 10 10 8 10 10 10 10 9 10 10 10 11 10
2 2 3 3 3 4 3 5 6 6 6 6 2 4 5 5 5 4 4 5 6 7 7 7 8 8 8 8 9 9 9 9 9 10 9 10 10 10 10 11 11 10 9 10
2 3 3 3 4 4 5 6 7 7 6 7 6 6 5 4 3 4 5 5 5 5 5 5 6 7 7 8 8 8 9 9 9 9 9 9 9 10 9 9 9 9 9 9
6 3 5 4 4 6 7 6 7 8 8 6 6 6 6 4 4 5 4 4 4 4 4 4 5 6 6 6 7 7 7 8 8 8 9 7 7 9 9 9 10 9 9 8
6 5 4 4 4 5 6 7 6 8 6 6 7 6 4 3 4 3 4 3 3 3 3 3 4 4 4 4 4 5 5 5 5 5 4 5 8 8 6 7 7 9 10 9
5 6 4 3 4 4 5 3 7 7 8 8 7 7 7 5 4 3 3 3 2 2 2 2 3 3 2 2 1 -0 -0 0 0 0 1 1 2 3 7 8 8 8 8 8
4 5 3 4 4 4 4 5 3 2 5 8 6 7 5 4 3 3 2 3 2 2 1 2 1 1 -1 -3 -4 -4 -5 -5 -5 -5 -4 -4 -3 -2 -1 0 1 2 3 3
3 3 4 3 0 1 2 3 1 4 3 3 3 5 4 4 3 2 1 1 1 1 -0 -1 -1 -2 -3 -3 -4 -4 -5 -5 -5 -5 -6 -6 -6 -6 -7 -7 -6 -4 -3 -2
0 2 4 2 -1 0 2 1 1 1 1 3 3 4 1 2 2 2 0 -1 -0 -1 -2 -2 -2 -3 -3 -3 -4 -4 -5 -5 -6 -6 -6 -6 -6 -6 -7 -7 -7 -7 -7 -8
0 1 2 2 3 2 3 2 1 -0 1 3 3 3 2 -0 -0 0 -1 -2 -2 -2 -2 -2 -2 -2 -3 -3 -4 -5 -6 -7 -7 -6 -7 -7 -7 -7 -7 -7 -6 -7 -7 -7
-1 1 -0 -0 1 -0 0 1 2 2 0 1 3 3 2 0 -1 -2 -2 -2 -2 -2 -2 -2 -2 -2 -2 -3 -5 -7 -10 -11 -11 -12 -13 -14 -15 -16 -16 -15 -14 -12 -9 -6
-0 -0 2 -1 -1 -2 -2 -0 1 2 1 2 1 2 0 -0 -2 -2 -2 -2 -2 -2 -2 -2 -2 -2 -3 -4 -6 -9 -14 -16 -18 -19 -20 -21 -21 -21 -22 -22 -22 -22 -21 -17
0 1 0 -0 -0 -0 -2 -1 1 1 1 0 2 0 0 0 -1 -2 -2 -2 -2 -2 -2 -2 -2 -2 -3 -5 -7 -12 -17 -19 -20 -20 -20 -20 -20 -20 -20 -20 -21 -21 -22 -22
-0 0 -0 -1 -1 -3 -5 -3 -2 -1 0 -0 1 1 0 0 -1 -1 -2 -2 -2 -2 -2 -2 -2 -3 -5 -7 -11 -14 -18 -19 -19 -18 -18 -18 -18 -18 -19 -19 -19 -20 -20 -21
-2 -1 -0 -0 -1 -4 -3 -2 -1 -0 0 -2 -0 -0 -1 -1 -1 -1 -1 -1 -2 -2 -2 -2 -4 -5 -8 -12 -13 -15 -16 -17 -17 -17 -17 -17 -16 -15 -15 -17 -19 -19 -19 -19
-2 -2 -0 -0 -0 -2 -4 -2 -2 -3 -1 -3 -1 -1 -1 -1 1 -0 -1 -1 -2 -2 -3 -5 -6 -10 -14 -15 -15 -15 -16 -15 -15 -14 -14 -14 -14 -13 -14 -16 -17 -17 -16 -17
-1 -1 -0 0 -0 -2 -3 -3 -3 -1 -8 -3 -1 -1 -2 -1 -1 -1 -2 -2 -3 -4 -5 -7 -11 -13 -14 -14 -15 -15 -15 -15 -14 -14 -13 -12 -11 -11 -13 -13 -13 -13 -14 -14
-3 -1 0 -0 0 -3 -3 -2 -3 -6 -2 -3 -2 -1 -2 -2 -2 -2 -2 -3 -3 -5 -8 -10 -12 -14 -13 -12 -13 -14 -14 -14 -14 -13 -12 -11 -11 -12 -12 -12 -12 -13 -15 -15
-1 -3 -2 -2 -3 -6 -3 -4 -4 -4 -4 -3 -2 -2 -2 -2 -2 -2 -3 -3 -5 -8 -9 -11 -12 -14 -13 -13 -12 -12 -12 -11 -12 -14 -14 -14 -15 -15 -14 -14 -14 -15 -15 -15
-4 -3 -2 -3 -7 -4 -4 -3 -3 -3 -3 -3 -3 -2 -2 -2 -2 -3 -4 -6 -7 -9 -12 -13 -13 -13 -14 -15 -16 -14 -12 -13 -15 -15 -15 -14 -13 -14 -16 -16 -16 -17 -18 -16
-4 -3 -2 -2 -4 -4 -3 -4 -3 -3 -3 -3 -2 -2 -2 -2 -3 -4 -6 -7 -12 -13 -13 -13 -14 -17 -18 -18 -18 -16 -16 -16 -16 -17 -17 -17 -16 -16 -16 -16 -17 -17 -18 -16
-3 -2 -2 -3 -5 -5 -4 -3 -3 -3 -3 -3 -3 -3 -3 -4 -5 -6 -10 -14 -14 -14 -16 -19 -19 -17 -16 -15 -15 -15 -14 -13 -13 -13 -13 -14 -14 -14 -15 -15 -18 -18 -17 -16

GFSCGP_850_dewp_096.txt.gz
Dewpoint
1 -0 -1 -2 -1 -4 -3 -1 0 -0 -1 0 1 1 0 -0 0 1 1 0 2 1 1 2 1 -5 -6 -6 -2 2 4 7 7 7 8 8 7 7 8 8 8 9 9 9
-1 1 -1 -2 -1 0 1 2 1 0 -0 1 3 3 2 1 1 2 5 5 6 6 6 7 1 -3 -3 1 6 5 6 6 7 8 8 9 9 8 8 8 8 8 9 9
-1 -2 -1 -0 0 2 1 2 2 2 1 2 3 2 -1 2 3 3 5 6 6 6 6 6 7 9 4 3 4 5 6 7 7 7 8 9 9 8 8 8 8 8 9 9
0 -1 -0 2 2 1 3 0 1 3 5 5 1 4 -0 2 3 2 5 5 6 6 6 6 6 8 7 5 6 6 6 5 5 6 7 9 9 9 10 8 7 9 10 9
-1 1 2 3 2 1 2 1 3 3 5 6 4 4 1 2 3 2 3 4 5 6 6 6 6 6 6 8 8 8 9 8 8 7 9 9 9 9 8 8 10 9 9 9
1 0 2 1 1 2 1 3 4 4 6 6 2 4 0 4 4 4 4 4 4 4 5 5 6 6 6 7 7 8 7 8 9 9 9 9 9 9 9 10 10 10 11 11
1 2 1 1 4 3 4 6 5 3 4 4 5 4 1 3 3 4 4 4 3 3 4 4 5 5 5 6 7 7 8 8 9 8 8 9 9 8 9 8 9 9 10 10
4 1 4 3 4 6 6 6 6 4 7 6 6 7 5 3 4 4 4 3 3 3 3 3 3 4 5 4 4 5 6 6 7 7 8 8 8 8 8 8 8 8 9 8
5 5 2 4 3 4 7 7 6 7 7 7 5 6 5 4 3 2 2 2 2 2 2 2 2 3 3 3 3 4 4 4 2 2 4 4 7 8 8 8 8 8 8 9
5 6 2 4 4 4 6 5 8 7 7 8 7 6 7 5 4 2 2 1 2 2 2 2 1 1 1 0 -0 0 -1 -3 -4 -5 -5 -4 -3 -1 1 4 6 7 7 8
4 5 2 3 5 4 6 5 6 6 7 8 7 7 6 5 3 3 2 2 2 2 2 1 1 -0 -1 -2 -3 -4 -4 -4 -4 -5 -5 -5 -5 -6 -6 -6 -5 -5 -3 -2
3 3 4 2 0 -0 1 2 2 3 3 3 3 5 4 4 3 2 2 2 2 2 1 1 -0 -2 -3 -4 -4 -5 -5 -6 -6 -6 -6 -7 -7 -7 -7 -6 -6 -6 -6 -6
2 2 2 -1 -2 -1 1 1 1 1 0 2 3 3 2 3 2 2 2 2 1 -1 -2 -2 -2 -2 -3 -5 -8 -8 -10 -11 -10 -12 -15 -17 -18 -19 -18 -18 -17 -16 -14 -12
-0 1 2 1 1 1 1 -0 1 0 1 2 2 3 2 1 3 1 0 -1 -1 -2 -2 -2 -2 -2 -3 -5 -9 -12 -14 -16 -16 -17 -19 -20 -20 -20 -20 -20 -20 -21 -21 -21
-1 0 -0 -0 -0 0 -0 -1 1 2 1 -1 1 2 1 0 0 1 -0 -2 -2 -2 -2 -2 -2 -2 -3 -5 -8 -13 -15 -17 -17 -18 -18 -18 -17 -17 -17 -18 -18 -18 -19 -19
-1 -0 1 0 -1 -1 0 -1 -0 1 1 1 2 1 -1 -1 -1 -1 -2 -2 -2 -2 -2 -2 -2 -2 -3 -6 -8 -11 -15 -17 -18 -18 -18 -17 -17 -17 -17 -17 -17 -17 -17 -17
-0 -0 -0 0 -2 -1 -2 -3 0 0 0 -0 1 -1 -0 -1 -1 -2 -2 -2 -2 -2 -2 -2 -2 -2 -4 -6 -10 -12 -15 -16 -17 -17 -17 -16 -16 -16 -15 -15 -15 -16 -16 -16
-1 -0 -1 -0 -3 -4 -8 -3 -2 -1 -1 -0 -0 -0 -0 -0 -1 -1 -2 -2 -2 -2 -2 -2 -2 -3 -6 -9 -12 -14 -14 -15 -15 -15 -15 -15 -15 -15 -15 -15 -15 -15 -16 -17
-3 -1 -1 -1 -1 -5 -5 -4 -2 -1 -2 -1 -1 -0 -0 -0 -1 -1 -1 -2 -2 -2 -2 -2 -3 -5 -9 -12 -13 -13 -13 -13 -14 -14 -14 -14 -14 -14 -15 -16 -17 -18 -18 -19
-3 -3 -1 -1 -1 -6 -10 -3 -2 -5 -5 -4 -1 -1 -1 -1 1 -0 -1 -1 -1 -2 -2 -3 -5 -8 -11 -11 -12 -12 -13 -14 -14 -15 -15 -15 -17 -18 -19 -20 -21 -20 -19 -19
-3 -2 -1 -0 -0 -2 -7 -3 -3 -6 -11 -3 -1 -1 -1 -1 -1 -1 -1 -1 -2 -2 -3 -5 -7 -8 -9 -11 -12 -14 -14 -14 -15 -17 -19 -20 -20 -21 -20 -19 -19 -19 -19 -20
-4 -3 -1 -1 -0 -3 -3 -3 -5 -8 -4 -3 -2 -2 -1 -1 -2 -2 -2 -2 -2 -3 -4 -5 -7 -8 -10 -13 -13 -14 -15 -19 -20 -20 -20 -19 -19 -18 -18 -17 -17 -17 -17 -17
-2 -4 -6 -3 -3 -7 -3 -5 -5 -4 -4 -4 -3 -3 -2 -2 -2 -2 -2 -2 -3 -3 -4 -6 -7 -11 -13 -13 -15 -19 -21 -19 -19 -20 -19 -19 -20 -19 -18 -16 -16 -15 -15 -15
-5 -4 -3 -3 -7 -5 -5 -4 -4 -4 -4 -5 -5 -4 -3 -3 -3 -2 -2 -2 -3 -4 -6 -7 -11 -14 -14 -17 -20 -18 -18 -19 -20 -22 -22 -20 -20 -20 -20 -18 -17 -16 -16 -16
-5 -4 -3 -3 -4 -5 -5 -6 -5 -4 -4 -4 -3 -3 -3 -3 -2 -2 -2 -3 -4 -6 -8 -13 -14 -14 -19 -20 -19 -20 -21 -21 -20 -19 -18 -17 -17 -17 -16 -16 -15 -15 -15 -15
-4 -4 -3 -4 -7 -7 -8 -6 -6 -5 -4 -3 -3 -3 -3 -3 -3 -3 -3 -4 -6 -10 -14 -14 -16 -20 -20 -20 -22 -22 -20 -18 -16 -15 -15 -15 -15 -15 -14 -14 -16 -16 -16 -16